Shiraz, ایران

07:33 AM +0330 on ژانویه 22, 2018 (GMT +0330)
Shahid Dastghaib International

آب و هوا گذشتهَ OISS - ژانویه, 2018

Change the Weather History Date:

يكشنبه, ژانویه 14, 2018

  Actual Average Record
Temperature  
متوسط دما 48 °F -  
ماکزیمم دما 66 °F 55 °F 66 °F (2018)
حداقل دما 29 °F 34 °F 23 °F (2009)
Degree Days  
Heating Degree Days 18    
Moisture  
قطره شبنم 18 °F    
Average Humidity 36    
Maximum Humidity 74    
Minimum Humidity 4    
بارش  
بارش 0.00 در 0.09 در - ()
فشار سطح دریا  
فشار سطح دریا 30.16 در    
باد  
سرعت باد 1 mph ()    
حداکثرسرعت باد 7 mph    
Max Gust Speed -    
ديد 6.4 مايل، ميل (در برابر كيلومتر    
رویدادها      
Averages and records for this station are not official NWS values.
T = Trace of Precipitation, MM = Missing Value Source: Averaged Metar Reports

Daily Weather History Graph

Daily Weather History Graph

Search for Another Location

Airport or City:

Trip Planner

Search our weather history database for the weather conditions in past years. The results will help you decide how hot, cold, wet, or windy it might be!

Date:

ستاره شناسی

Jan. 14, 2018 Rise Set
وقت حقیقی 6:55 AM +0330 5:22 PM +0330
تاریک و روشن اجتماعی 6:29 AM +0330 5:47 PM +0330
تاریک روشن دریایی 6:00 AM +0330 6:17 PM +0330
شفق و فلق نجومی 5:31 AM +0330 6:45 PM +0330
ماه 4:32 AM +0330 (1/14) 3:21 PM +0330 (1/14)
میزان روشنایی روز 11h 18m
طول روز
10h 26m
Waning Crescent, 7% of the Moon is Illuminated
Jan 14
Waning Crescent
Jan 17
New
Jan 25
ربع اول
Jan 31
ماه کامل
Feb 7
ربع آخر

Hourly Weather History & Observations

زمان (+0330) دما قطره شبنم رطوبت فشار ديد Wind Dir سرعت باد سرعت تندباد Precip رویدادها شرايط عادی
12:00 AM 39.2 °F 24.8 °F 56% 30.18 در - آرام آرام - N/A   صاف
12:20 AM 33.8 °F 24.8 °F 70% 30.18 در - آرام آرام - N/A   صاف
12:30 AM 35 °F 25 °F 56% 30.16 در 6 mi آرام آرام - -  
12:30 AM 33.8 °F 24.8 °F 70% 30.18 در - آرام آرام - N/A   صاف
12:50 AM 33.8 °F 23.0 °F 65% 30.18 در - آرام آرام - N/A   صاف
1:00 AM 33.8 °F 23.0 °F 65% 30.18 در - آرام آرام - N/A   صاف
1:20 AM 35.6 °F 24.8 °F 65% 30.18 در - آرام آرام - N/A   صاف
1:30 AM 35.6 °F 24.8 °F 65% 30.18 در - آرام آرام - N/A   صاف
1:50 AM 35.6 °F 23.0 °F 60% 30.18 در - آرام آرام - N/A   صاف
2:00 AM 35.6 °F 23.0 °F 60% 30.18 در - آرام آرام - N/A   صاف
2:20 AM 37.4 °F 23.0 °F 56% 30.18 در - آرام آرام - N/A   صاف
2:30 AM 37.4 °F 23.0 °F 56% 30.18 در - آرام آرام - N/A   صاف
2:50 AM 35.6 °F 23.0 °F 60% 30.18 در - آرام آرام - N/A   صاف
3:00 AM 35.6 °F 23.0 °F 60% 30.18 در - آرام آرام - N/A   صاف
3:20 AM 30.2 °F 21.2 °F 69% 30.18 در - آرام آرام - N/A   صاف
3:30 AM 30 °F 21 °F 60% 30.15 در 6 mi آرام آرام - -  
3:30 AM 30.2 °F 21.2 °F 69% 30.18 در - آرام آرام - N/A   صاف
3:50 AM 30.2 °F 17.6 °F 60% 30.18 در - آرام آرام - N/A   صاف
4:00 AM 30.2 °F 17.6 °F 60% 30.18 در - آرام آرام - N/A   صاف
4:20 AM 30.2 °F 19.4 °F 64% 30.18 در - متغير 2.3 mph - N/A   صاف
4:30 AM 30.2 °F 19.4 °F 64% 30.18 در - متغير 2.3 mph - N/A   صاف
4:50 AM 30.2 °F 17.6 °F 60% 30.18 در - آرام آرام - N/A   صاف
5:00 AM 30.2 °F 17.6 °F 60% 30.18 در - آرام آرام - N/A   صاف
5:20 AM 30.2 °F 19.4 °F 64% 30.18 در - آرام آرام - N/A   صاف
5:30 AM 30.2 °F 19.4 °F 64% 30.18 در - آرام آرام - N/A   صاف
5:50 AM 28.4 °F 21.2 °F 74% 30.18 در - آرام آرام - N/A   صاف
6:00 AM 28.4 °F 21.2 °F 74% 30.18 در - آرام آرام - N/A   صاف
6:20 AM 32.0 °F 21.2 °F 64% 30.21 در - آرام آرام - N/A   صاف
6:30 AM 32 °F 21 °F 51% 30.22 در 6 mi آرام آرام - -   صاف
6:30 AM 32.0 °F 21.2 °F 64% 30.21 در - آرام آرام - N/A   صاف
6:50 AM 35.6 °F 17.6 °F 48% 30.21 در - آرام آرام - N/A   صاف
7:00 AM 35.6 °F 17.6 °F 48% 30.21 در - آرام آرام - N/A   صاف
7:20 AM 35.6 °F 21.2 °F 56% 30.21 در - متغير 2.3 mph - N/A   صاف
7:30 AM 35.6 °F 21.2 °F 56% 30.21 در - متغير 2.3 mph - N/A   صاف
7:50 AM 41.0 °F 23.0 °F 49% 30.24 در - آرام آرام - N/A   صاف
8:00 AM 41.0 °F 23.0 °F 49% 30.24 در - آرام آرام - N/A   صاف
8:20 AM 42.8 °F 19.4 °F 39% 30.24 در - آرام آرام - N/A   صاف
8:30 AM 42.8 °F 19.4 °F 39% 30.24 در - آرام آرام - N/A   صاف
8:50 AM 44.6 °F 23.0 °F 43% 30.24 در - آرام آرام - N/A   صاف
9:00 AM 44.6 °F 23.0 °F 43% 30.24 در - آرام آرام - N/A   صاف
9:20 AM 46.4 °F 23.0 °F 40% 30.24 در - آرام آرام - N/A   صاف
9:30 AM 47 °F 22 °F 25% 30.21 در 7 mi آرام آرام - -   صاف
9:30 AM 46.4 °F 23.0 °F 40% 30.24 در - آرام آرام - N/A   صاف
9:50 AM 51.8 °F 21.2 °F 30% 30.24 در - آرام آرام - N/A   صاف
10:00 AM 51.8 °F 21.2 °F 30% 30.24 در - آرام آرام - N/A   صاف
10:20 AM 51.8 °F 21.2 °F 30% 30.24 در - آرام آرام - N/A   صاف
10:30 AM 51.8 °F 21.2 °F 30% 30.24 در - آرام آرام - N/A   صاف
10:50 AM 55.4 °F 17.6 °F 23% 30.21 در - آرام آرام - N/A   صاف
11:00 AM 55.4 °F 17.6 °F 23% 30.21 در - آرام آرام - N/A   صاف
11:20 AM 59.0 °F 19.4 °F 22% 30.21 در - آرام آرام - N/A   صاف
11:30 AM 59.0 °F 19.4 °F 22% 30.21 در - آرام آرام - N/A   صاف
11:50 AM 60.8 °F 15.8 °F 17% 30.18 در - شرق 4.6 mph - N/A   صاف
12:00 PM 60.8 °F 15.8 °F 17% 30.18 در - شرق 4.6 mph - N/A   صاف
12:20 PM 59.0 °F 24.8 °F 27% 30.15 در - آرام آرام - N/A   صاف
12:30 PM 59 °F 26 °F 16% 30.12 در 6 mi آرام آرام - -   صاف
12:30 PM 59.0 °F 24.8 °F 27% 30.15 در - آرام آرام - N/A   صاف
12:50 PM 62.6 °F 14.0 °F 15% 30.15 در - جنوب شرقی 4.6 mph - N/A   صاف
1:00 PM 62.6 °F 14.0 °F 15% 30.15 در - جنوب شرقی 4.6 mph - N/A   صاف
1:20 PM 62.6 °F 15.8 °F 16% 30.12 در - ESE 6.9 mph - N/A   صاف
1:30 PM 62.6 °F 15.8 °F 16% 30.12 در - ESE 6.9 mph - N/A   صاف
1:50 PM 64.4 °F 15.8 °F 15% 30.12 در - شرق 6.9 mph - N/A   صاف
2:00 PM 64.4 °F 15.8 °F 15% 30.12 در - شرق 6.9 mph - N/A   صاف
2:20 PM 64.4 °F 15.8 °F 15% 30.12 در - شرق 4.6 mph - N/A   صاف
2:30 PM 64.4 °F 15.8 °F 15% 30.12 در - شرق 4.6 mph - N/A   صاف
2:50 PM 66.2 °F 3.2 °F 8% 30.09 در - شرق 6.9 mph - N/A   صاف
3:00 PM 66.2 °F 3.2 °F 8% 30.09 در - شرق 6.9 mph - N/A   صاف
3:20 PM 66.2 °F 6.8 °F 10% 30.09 در - شرق 4.6 mph - N/A   صاف
3:30 PM 65 °F 7 °F 4% 30.04 در 6 mi شرق 4.5 mph - -   صاف
3:30 PM 66.2 °F 6.8 °F 10% 30.09 در - شرق 4.6 mph - N/A   صاف
3:50 PM 66.2 °F 14.0 °F 13% 30.09 در - شرق 4.6 mph - N/A   صاف
4:00 PM 66.2 °F 14.0 °F 13% 30.09 در - شرق 4.6 mph - N/A   صاف
4:20 PM 66.2 °F 17.6 °F 15% 30.09 در - شرق 4.6 mph - N/A   صاف
4:30 PM 66.2 °F 17.6 °F 15% 30.09 در - شرق 4.6 mph - N/A   صاف
4:50 PM 62.6 °F 19.4 °F 19% 30.09 در - ESE 4.6 mph - N/A   صاف
5:00 PM 62.6 °F 19.4 °F 19% 30.09 در - ESE 4.6 mph - N/A   صاف
5:20 PM 60.8 °F 3.2 °F 10% 30.09 در - غرب 4.6 mph - N/A   صاف
5:30 PM 60.8 °F 3.2 °F 10% 30.09 در - غرب 4.6 mph - N/A   صاف
5:50 PM 55.4 °F 21.2 °F 26% 30.12 در - آرام آرام - N/A   صاف
6:00 PM 55.4 °F 21.2 °F 26% 30.12 در - آرام آرام - N/A   صاف
6:20 PM 53.6 °F 24.8 °F 33% 30.12 در - جنوب شرقی 4.6 mph - N/A   صاف
6:30 PM 54 °F 24 °F 20% 30.12 در 7 mi جنوب شرقی 4.5 mph - -   صاف
6:30 PM 53.6 °F 24.8 °F 33% 30.12 در - جنوب شرقی 4.6 mph - N/A   صاف
6:50 PM 51.8 °F 21.2 °F 30% 30.12 در - آرام آرام - N/A   صاف
7:00 PM 51.8 °F 21.2 °F 30% 30.12 در - آرام آرام - N/A   صاف
7:20 PM 50.0 °F 19.4 °F 30% 30.15 در - آرام آرام - N/A   صاف
7:30 PM 50.0 °F 19.4 °F 30% 30.15 در - آرام آرام - N/A   صاف
7:55 PM 50.0 °F 19.4 °F 30% 30.15 در - NNW 4.6 mph - N/A   صاف
8:00 PM 50.0 °F 19.4 °F 30% 30.15 در - NNW 4.6 mph - N/A   صاف
8:20 PM 44.6 °F 15.8 °F 31% 30.15 در - آرام آرام - N/A   صاف
8:30 PM 44.6 °F 15.8 °F 31% 30.15 در - آرام آرام - N/A   صاف
8:50 PM 48.2 °F 10.4 °F 22% 30.15 در - آرام آرام - N/A   صاف
9:00 PM 48.2 °F 10.4 °F 22% 30.15 در - آرام آرام - N/A   صاف
9:20 PM 50.0 °F 8.6 °F 19% 30.18 در - شمال غربی 4.6 mph - N/A   صاف
9:30 PM 50 °F 8 °F 8% 30.12 در 7 mi شمال غربی 4.5 mph - -   صاف
9:30 PM 50.0 °F 8.6 °F 19% 30.18 در - شمال غربی 4.6 mph - N/A   صاف
9:55 PM 50.0 °F 8.6 °F 19% 30.18 در - شمال غربی 4.6 mph - N/A   صاف
10:00 PM 50.0 °F 8.6 °F 19% 30.18 در - شمال غربی 4.6 mph - N/A   صاف
10:20 PM 44.6 °F 14.0 °F 29% 30.18 در - آرام آرام - N/A   صاف
10:30 PM 44.6 °F 14.0 °F 29% 30.18 در - آرام آرام - N/A   صاف
10:50 PM 44.6 °F 12.2 °F 27% 30.15 در - آرام آرام - N/A   صاف
11:00 PM 44.6 °F 12.2 °F 27% 30.15 در - آرام آرام - N/A   صاف
11:20 PM 41.0 °F 12.2 °F 31% 30.15 در - آرام آرام - N/A   صاف
11:30 PM 41.0 °F 12.2 °F 31% 30.15 در - آرام آرام - N/A   صاف
11:50 PM 39.2 °F 12.2 °F 33% 30.15 در - آرام آرام - N/A   صاف